Total_Precipitation_Accumulation
1.40 1.61 2.14 1.92 1.51 1.47 1.47 1.35 1.32 1.14 1.13 1.21 1.26 1.18 1.17 1.23 1.26 1.35 1.46 1.62 1.71 1.67 1.49 1.45 1.36 1.35 1.24 1.07 1.07 0.94 0.89 0.85 0.84 0.88 0.94 0.92 0.99 1.24 1.54 1.63 1.71 1.16 1.13
0.97 1.20 1.72 1.69 1.49 1.44 1.39 1.29 1.25 1.21 1.16 1.18 1.26 1.27 1.32 1.36 1.32 1.37 1.59 1.68 1.62 1.50 1.33 1.20 1.13 1.06 0.97 0.87 0.81 0.74 0.81 0.89 0.96 1.14 1.12 0.95 1.00 1.24 1.48 1.52 1.70 1.10 1.01
0.78 0.90 1.05 1.22 1.20 1.20 1.25 1.22 1.24 1.30 1.27 1.23 1.23 1.30 1.36 1.44 1.47 1.58 1.59 1.43 1.35 1.31 1.18 1.09 0.95 0.81 0.75 0.68 0.66 0.71 0.87 1.04 1.29 1.47 1.61 1.02 0.76 1.15 1.24 1.24 1.16 0.99 0.96
0.74 0.78 0.75 0.95 1.05 1.05 1.16 1.20 1.32 1.33 1.25 1.17 1.16 1.17 1.24 1.44 1.48 1.44 1.32 1.22 1.23 1.16 1.06 0.92 0.78 0.67 0.61 0.55 0.60 0.77 0.99 1.12 1.36 1.78 1.68 0.88 0.57 0.80 0.97 1.00 0.93 0.92 0.86
0.80 0.87 0.92 1.01 1.04 1.08 1.15 1.24 1.27 1.17 1.12 1.15 1.15 1.14 1.21 1.27 1.24 1.18 1.14 1.10 1.07 0.99 0.90 0.76 0.67 0.61 0.57 0.54 0.62 0.80 1.01 1.13 1.50 1.61 1.06 0.93 0.90 0.89 0.85 0.92 0.95 0.87 0.75
0.91 0.95 0.97 0.99 0.94 0.94 0.96 1.05 1.17 1.17 1.10 1.12 1.09 1.09 1.08 1.10 1.13 1.03 0.95 0.93 0.92 0.86 0.77 0.71 0.62 0.59 0.59 0.61 0.67 0.80 1.03 1.27 1.41 0.97 0.77 0.73 0.76 0.91 0.86 1.04 1.13 0.97 0.81
0.89 0.96 0.89 0.94 0.94 0.88 0.84 0.90 1.01 1.10 1.11 1.09 1.03 1.03 1.03 1.01 1.00 0.92 0.84 0.80 0.80 0.72 0.65 0.65 0.60 0.61 0.64 0.65 0.70 0.81 1.04 1.40 1.13 0.77 0.80 0.81 0.76 0.78 0.93 1.18 1.38 1.23 1.00
0.96 0.97 0.95 1.03 1.00 0.94 0.86 0.86 0.84 0.93 1.03 1.01 0.96 0.95 0.91 0.83 0.85 0.87 0.87 0.76 0.71 0.63 0.59 0.59 0.58 0.61 0.66 0.71 0.78 0.85 1.06 1.14 0.73 0.67 0.66 0.68 0.60 0.67 0.94 1.19 1.38 1.37 1.27
1.13 1.00 0.97 1.05 1.05 0.97 1.01 0.93 0.84 0.82 0.86 0.85 0.83 0.84 0.81 0.76 0.76 0.80 0.89 0.84 0.69 0.65 0.64 0.65 0.65 0.65 0.68 0.77 0.80 0.88 1.03 1.09 0.85 0.75 0.62 0.63 0.63 0.85 1.20 1.35 1.37 1.38 1.37
1.53 1.30 1.16 1.10 1.01 0.95 0.94 0.93 0.89 0.85 0.79 0.78 0.77 0.74 0.80 0.80 0.77 0.84 0.89 0.90 0.82 0.80 0.87 0.84 0.81 0.79 0.75 0.75 0.82 0.93 1.01 0.97 0.94 0.83 0.70 0.58 0.72 1.03 1.36 1.51 1.54 1.55 1.47
1.76 1.62 1.37 1.14 1.05 1.02 0.89 0.85 0.97 0.96 0.92 0.91 0.89 0.86 0.99 1.14 0.98 1.04 0.98 1.12 1.13 1.08 1.17 1.20 1.21 1.15 1.03 0.90 1.03 1.13 1.03 1.04 1.09 0.97 0.76 0.62 0.84 1.14 1.42 1.54 1.55 1.58 1.51
1.97 1.72 1.56 1.34 1.11 0.97 0.86 1.01 1.28 1.08 1.09 1.17 1.23 1.22 1.46 1.69 1.66 1.09 1.17 1.47 1.60 1.66 1.71 1.76 1.81 1.57 1.32 1.24 1.64 1.79 1.19 1.15 1.24 1.14 0.99 0.95 1.18 1.43 1.68 1.61 1.52 1.55 1.48
2.27 2.01 1.83 1.55 1.27 1.09 1.16 1.06 1.22 1.40 1.51 1.50 1.47 1.50 1.70 1.56 1.33 1.20 1.36 1.67 1.93 2.01 2.00 2.22 2.24 1.90 1.95 2.21 2.17 1.92 1.42 1.53 1.59 1.53 1.41 1.45 1.61 1.91 2.27 2.06 1.73 1.61 1.56
2.39 2.27 2.24 1.83 1.66 1.70 1.48 1.22 1.14 1.17 1.31 1.50 1.74 1.68 1.79 2.01 1.91 1.83 1.95 2.01 2.14 2.37 2.74 2.62 2.77 2.61 2.57 2.48 2.37 2.20 1.95 1.98 1.96 2.08 1.97 1.74 1.83 2.15 2.65 2.64 2.19 1.86 1.69
2.41 2.43 2.43 2.21 2.04 2.11 1.90 1.66 1.40 1.51 1.53 1.61 1.74 1.87 1.83 2.13 2.34 2.32 2.30 2.28 2.15 2.23 2.47 2.66 2.68 3.03 3.16 2.77 2.38 2.21 2.24 2.31 2.20 2.20 2.07 1.92 1.86 2.06 2.50 2.77 2.66 2.43 2.15
2.68 2.74 2.54 2.45 2.44 2.43 2.36 2.28 2.15 1.89 1.97 1.89 1.83 1.84 1.91 2.18 2.50 2.63 2.50 2.48 2.32 2.28 2.45 2.64 2.83 3.31 3.26 3.07 2.64 2.37 2.32 2.29 2.11 2.06 2.15 2.29 2.12 2.03 2.18 2.55 2.87 2.82 2.65
3.03 3.07 3.07 3.02 3.15 3.09 2.92 2.81 2.58 2.37 2.22 2.19 2.26 2.26 2.16 2.24 2.54 2.57 2.40 2.32 2.39 2.51 2.70 2.72 2.93 3.15 2.86 2.87 2.67 2.43 2.25 2.06 1.91 1.90 2.08 2.24 2.12 2.05 2.19 2.42 2.70 2.83 2.96
3.23 3.40 3.59 3.57 3.59 3.43 3.43 3.37 3.13 2.89 2.72 2.54 2.48 2.51 2.36 2.34 2.43 2.65 2.44 2.30 2.62 2.66 2.79 3.08 3.23 3.20 3.13 3.13 2.88 2.50 2.24 2.13 1.80 1.69 1.69 1.83 2.04 1.84 2.13 2.38 2.47 2.58 2.92
3.65 3.92 4.12 4.13 3.99 3.74 3.78 3.74 3.60 3.46 3.14 2.79 2.61 2.52 2.37 2.34 2.47 2.77 2.73 2.83 2.89 2.99 3.03 2.89 3.32 3.36 3.26 3.27 2.84 2.59 2.24 1.99 1.78 1.57 1.49 1.47 1.71 1.92 2.01 2.06 2.17 2.33 2.80
4.14 4.55 4.40 4.31 4.52 4.41 4.25 4.11 3.84 3.39 2.96 2.81 2.78 2.59 2.43 2.47 2.57 2.99 2.85 2.84 2.93 3.09 3.15 3.13 3.29 3.32 3.07 3.05 2.72 2.56 2.16 1.70 1.61 1.53 1.36 1.36 1.46 1.52 1.78 2.09 2.30 2.05 2.42
4.20 4.58 4.74 4.76 4.68 4.51 4.14 3.82 3.58 3.34 3.13 2.87 2.69 2.61 2.50 2.39 2.56 2.98 2.85 3.09 3.05 3.05 3.07 3.13 3.26 3.18 2.86 3.05 3.13 2.66 2.05 1.61 1.60 1.39 1.33 1.37 1.41 1.42 1.72 2.10 2.38 2.31 2.11
3.84 4.30 4.60 4.75 4.65 4.27 3.90 3.70 3.58 3.51 3.11 2.81 2.77 2.87 2.72 2.72 2.75 2.79 2.97 2.95 3.02 3.12 3.06 3.05 3.18 3.02 2.66 2.89 3.20 3.25 2.58 2.13 1.67 1.23 1.34 1.44 1.55 1.65 1.71 1.84 2.08 2.29 2.29
3.38 3.69 3.81 3.97 3.94 3.79 3.82 3.83 3.76 3.73 3.29 3.18 3.17 3.15 2.95 2.95 2.96 2.97 2.95 2.88 2.88 2.69 2.74 2.81 2.85 2.87 2.80 2.73 3.03 3.32 2.89 2.37 2.01 1.47 1.35 1.38 1.58 1.83 1.88 1.93 1.97 2.17 2.31
2.92 3.27 3.50 3.56 3.52 3.43 3.54 3.59 3.47 3.27 3.11 3.23 3.52 3.47 3.19 2.97 2.81 2.62 2.56 2.71 2.73 2.53 2.54 2.23 2.36 2.57 2.59 2.45 2.70 2.76 2.78 2.76 2.65 1.98 1.52 1.36 1.51 1.70 1.87 1.80 1.82 2.05 2.33
2.53 2.82 3.07 3.33 3.43 3.38 3.43 3.38 3.40 3.26 3.26 3.30 3.28 3.29 3.09 2.88 2.54 2.22 2.24 2.41 2.40 2.33 2.22 2.10 2.27 2.17 2.13 2.18 2.38 2.57 2.65 2.70 2.60 2.43 2.01 1.90 1.84 1.71 1.66 1.67 1.88 2.03 2.23
2.17 2.29 2.43 2.65 2.93 3.10 3.16 3.14 3.17 3.13 3.11 3.04 2.94 2.82 2.63 2.47 2.21 1.95 1.87 2.03 2.15 2.17 2.11 2.08 2.17 2.07 2.09 2.23 2.22 2.28 2.52 2.52 2.48 2.63 2.26 2.09 2.02 1.75 1.70 1.77 1.81 2.00 2.14